Regional Weather Roundup
Issued by NWS

Home | Current Version | Previous Version | Graphics & Text | Print | Product List | Glossary On
Versions: 1 2 3 4 5 6 7 8 9 10 11 12 13 14 15 16 17 18 19 20 21 22 23 24 25 26 27 28 29 30 31 32 33 34 35 36 37 38 39 40 41 42 43 44 45 46 47 48 49 50
000
ASUS43 KLMK 070310
RWRKY
KENTUCKY REGIONAL WEATHER ROUNDUP
NATIONAL WEATHER SERVICE LOUISVILLE KY
1100 PM EDT MON JUL 06 2015

NOTE "FAIR" INDICATES FEW OR NO CLOUDS BELOW 12,000 FEET
WITH NO SIGNIFICANT WEATHER AND/OR OBSTRUCTIONS TO VISIBILITY.

KYZ001>023-026-027-061>063-070>075-070400-
WESTERN AND SOUTH CENTRAL KENTUCKY

CITY           SKY/WX    TMP DP  RH WIND       PRES   REMARKS
PADUCAH        CLEAR     79  73  82 S6        29.98R
HENDERSON      CLEAR     77  72  83 S7        29.98R
OWENSBORO      PTCLDY    78  75  90 S8        30.01R
HOPKINSVILLE   CLEAR     78  74  85 S8        30.04R
BOWLING GREEN  PTCLDY    79  71  76 S5        30.05R
GLASGOW        CLEAR     74  69  83 CALM      30.07R
$$

KYZ024-025-028>034-038-045-046-053-070400-
NORTH CENTRAL KENTUCKY

CITY           SKY/WX    TMP DP  RH WIND       PRES   REMARKS
LOUISVILLE/SDF PTCLDY    80  70  71 S7        30.02R
LOUISVILLE/LOU CLEAR     79  70  74 S3        30.03R
FORT KNOX      CLEAR     75  70  86 S5        30.03R
$$

KYZ035>037-039>044-047>052-055>060-089>105-070400-
NORTHEAST KENTUCKY

CITY           SKY/WX    TMP DP  RH WIND       PRES   REMARKS
LEXINGTON      CLEAR     73  68  84 S7        30.06R
COVINGTON      PTCLDY    76  68  76 S6        30.03R
FRANKFORT      CLEAR     74  68  81 SW3       30.05R
$$

KYZ054-064>069-076>088-106>120-070400-
SOUTHEAST KENTUCKY

CITY           SKY/WX    TMP DP  RH WIND       PRES   REMARKS
JACKSON        CLEAR     73  67  81 CALM      30.10R
LONDON         PTCLDY    72  67  84 CALM      30.10R
SOMERSET       CLEAR     70  70 100 CALM      30.10R
MIDDLESBORO    CLEAR     70  69  95 CALM      30.12R
MONTICELLO     CLEAR     69  69 100 CALM      30.11R FOG
$$




USA.gov is the U.S. government's official web portal to all federal, state and local government web resources and services.